Location: Feydey
(46.3431°N, 7.0106°E)
Time: 22:27:03
(UTC+00:00)

USA 215 - Pass Details

Date: 20 June 2021
Orbit: 1100 x 1107 km, 123.0° (Epoch: 22 June)

Event Time Altitude Azimuth Distance (km) Brightness Sun altitude
Rises 22:11:05 0° 53° (NE) 3,923 6.4 -17.7°
Reaches altitude 10° 22:13:39 10° 58° (ENE) 2,962 5.7 -17.9°
Maximum altitude 22:20:02 55° 135° (SE) 1,303 3.3 -18.2°
Enters shadow 22:25:28 15° 210° (SSW) 2,609 4.8 -18.5°
